| time (UTC) | temp F | wind direction | speed knots | gust knots | rain 1hr in | rain 24hr in | rain mn in | humidity % | barometer mb |
| 20260902162019 | 66 | 150 | 6.1 | 12.2 | 0.00 | 0.07 | 0.07 | 94 | 1014.9 |
| 20260902161540 | 66 | 212 | 4.3 | 13.0 | 0.00 | 0.07 | 0.07 | 94 | 1015.0 |
| 20260902161017 | 66 | 219 | 6.1 | 13.9 | 0.00 | 0.07 | 0.07 | 94 | 1015.0 |
| 20260902160515 | 66 | 192 | 7.0 | 14.8 | 0.00 | 0.07 | 0.07 | 94 | 1015.0 |
| 20260902160030 | 66 | 182 | 7.0 | 14.8 | 0.00 | 0.07 | 0.07 | 94 | 1015.2 |
| 20260902155515 | 66 | 189 | 7.0 | 14.8 | 0.00 | 0.07 | 0.07 | 94 | 1015.2 |
| 20260902155020 | 66 | 192 | 6.1 | 14.8 | 0.00 | 0.07 | 0.07 | 95 | 1015.1 |
| 20260902154533 | 66 | 196 | 7.8 | 16.5 | 0.00 | 0.07 | 0.07 | 94 | 1015.1 |
| 20260902154016 | 66 | 360 | 5.2 | 16.5 | 0.00 | 0.07 | 0.07 | 94 | 1015.1 |
| 20260902153521 | 66 | 194 | 7.8 | 14.8 | 0.00 | 0.07 | 0.07 | 93 | 1015.2 |
| 20260902153035 | 66 | 189 | 6.1 | 15.6 | 0.00 | 0.07 | 0.07 | 93 | 1015.2 |
| 20260902152516 | 66 | 360 | 7.8 | 15.6 | 0.00 | 0.07 | 0.07 | 93 | 1015.2 |
| 20260902152019 | 66 | 182 | 7.0 | 11.3 | 0.00 | 0.07 | 0.07 | 93 | 1015.2 |
| 20260902151533 | 66 | 193 | 6.1 | 14.8 | 0.00 | 0.07 | 0.07 | 93 | 1015.2 |
| 20260902151020 | 66 | 236 | 7.0 | 14.8 | 0.00 | 0.07 | 0.07 | 93 | 1015.1 |
| 20260902150521 | 65 | 210 | 5.2 | 11.3 | 0.00 | 0.07 | 0.07 | 93 | 1015.3 |
| 20260902150034 | 65 | 240 | 5.2 | 13.9 | 0.00 | 0.07 | 0.07 | 94 | 1015.3 |
| 20260902145517 | 65 | 192 | 7.0 | 13.9 | 0.00 | 0.07 | 0.07 | 94 | 1015.4 |
| 20260902145016 | 65 | 155 | 6.1 | 12.2 | 0.00 | 0.07 | 0.07 | 94 | 1015.4 |
| 20260902144536 | 65 | 236 | 5.2 | 17.4 | 0.00 | 0.07 | 0.07 | 94 | 1015.4 |
| 20260902144018 | 65 | 238 | 6.1 | 17.4 | 0.00 | 0.07 | 0.07 | 94 | 1015.5 |
| 20260902143518 | 65 | 173 | 8.7 | 16.5 | 0.00 | 0.07 | 0.07 | 95 | 1015.5 |
| 20260902143035 | 65 | 208 | 5.2 | 14.8 | 0.00 | 0.07 | 0.07 | 95 | 1015.6 |
| 20260902142519 | 64 | 190 | 7.8 | 14.8 | 0.00 | 0.07 | 0.07 | 95 | 1015.7 |
| 20260902142019 | 64 | 224 | 6.1 | 14.8 | 0.00 | 0.07 | 0.07 | 96 | 1015.7 |
| 20260902141537 | 64 | 360 | 6.1 | 14.8 | 0.00 | 0.07 | 0.07 | 96 | 1015.6 |
| 20260902141020 | 64 | 177 | 6.1 | 13.9 | 0.00 | 0.07 | 0.07 | 96 | 1015.7 |
| 20260902140518 | 64 | 198 | 6.1 | 13.0 | 0.00 | 0.07 | 0.07 | 96 | 1015.7 |
| 20260902140038 | 64 | 223 | 5.2 | 13.0 | 0.00 | 0.07 | 0.07 | 97 | 1015.8 |
| 20260902135518 | 63 | 225 | 5.2 | 13.0 | 0.00 | 0.07 | 0.07 | 97 | 1015.8 |
| 20260902135015 | 63 | 173 | 6.1 | 12.2 | 0.00 | 0.07 | 0.07 | 97 | 1016.0 |
| 20260902134536 | 63 | 139 | 7.0 | 12.2 | 0.01 | 0.07 | 0.07 | 97 | 1016.0 |
| 20260902134017 | 63 | 240 | 5.2 | 9.6 | 0.01 | 0.07 | 0.07 | 97 | 1016.1 |
| 20260902133517 | 63 | 237 | 3.5 | 12.2 | 0.02 | 0.07 | 0.07 | 97 | 1016.1 |
| 20260902133035 | 63 | 221 | 5.2 | 12.2 | 0.02 | 0.07 | 0.07 | 97 | 1016.2 |
| 20260902132521 | 62 | 181 | 2.6 | 8.7 | 0.03 | 0.07 | 0.07 | 97 | 1016.3 |
| 20260902132019 | 62 | 96 | 3.5 | 7.8 | 0.03 | 0.07 | 0.07 | 97 | 1016.3 |
| 20260902131537 | 62 | 196 | 2.6 | 7.0 | 0.04 | 0.07 | 0.07 | 97 | 1016.3 |
| 20260902131018 | 62 | 219 | 2.6 | 10.4 | 0.05 | 0.07 | 0.07 | 97 | 1016.4 |
| 20260902130518 | 62 | 217 | 2.6 | 10.4 | 0.05 | 0.07 | 0.07 | 97 | 1016.6 |
| 20260902130041 | 62 | 184 | 4.3 | 10.4 | 0.04 | 0.07 | 0.07 | 96 | 1016.7 |
| 20260902125521 | 62 | 194 | 2.6 | 8.7 | 0.04 | 0.07 | 0.07 | 96 | 1016.7 |
| 20260902125022 | 62 | 157 | 2.6 | 10.4 | 0.04 | 0.07 | 0.07 | 96 | 1016.9 |
| 20260902124535 | 62 | 235 | 5.2 | 10.4 | 0.03 | 0.06 | 0.06 | 95 | 1016.8 |
| 20260902124017 | 62 | 186 | 2.6 | 8.7 | 0.03 | 0.06 | 0.06 | 95 | 1017.0 |
| 20260902123517 | 62 | 171 | 2.6 | 10.4 | 0.03 | 0.05 | 0.05 | 94 | 1017.0 |
| 20260902123036 | 62 | 159 | 5.2 | 12.2 | 0.02 | 0.04 | 0.04 | 94 | 1017.0 |
| 20260902122520 | 63 | 233 | 6.1 | 13.9 | 0.01 | 0.03 | 0.03 | 93 | 1017.1 |
| 20260902122018 | 63 | 360 | 7.0 | 14.8 | 0.01 | 0.03 | 0.03 | 93 | 1017.1 |
| 20260902121535 | 63 | 233 | 8.7 | 14.8 | 0.00 | 0.03 | 0.03 | 91 | 1017.1 |
| 20260902121018 | 64 | 201 | 5.2 | 10.4 | 0.00 | 0.02 | 0.02 | 91 | 1017.2 |
| 20260902120518 | 64 | 101 | 5.2 | 10.4 | 0.00 | 0.02 | 0.02 | 91 | 1017.3 |
| 20260902120034 | 63 | 119 | 3.5 | 13.0 | 0.00 | 0.02 | 0.02 | 92 | 1017.2 |
| 20260902115520 | 63 | 160 | 6.1 | 13.0 | 0.00 | 0.02 | 0.02 | 92 | 1017.4 |
| 20260902115019 | 63 | 141 | 2.6 | 7.8 | 0.00 | 0.02 | 0.02 | 92 | 1017.5 |
| 20260902114602 | 63 | 125 | 2.6 | 9.6 | 0.00 | 0.02 | 0.02 | 92 | 1017.6 |
| 20260902114018 | 63 | 117 | 2.6 | 9.6 | 0.00 | 0.02 | 0.02 | 92 | 1017.5 |
| 20260902113518 | 63 | 153 | 3.5 | 8.7 | 0.00 | 0.02 | 0.02 | 91 | 1017.6 |
| 20260902113042 | 63 | 234 | 1.7 | 7.0 | 0.00 | 0.02 | 0.02 | 91 | 1017.8 |
| 20260902112517 | 63 | 148 | 1.7 | 7.0 | 0.00 | 0.02 | 0.02 | 90 | 1017.9 |
| 20260902112018 | 63 | 103 | 2.6 | 7.0 | 0.00 | 0.02 | 0.02 | 90 | 1018.0 |
| 20260902111535 | 63 | 144 | 1.7 | 7.0 | 0.00 | 0.02 | 0.02 | 90 | 1018.1 |
| 20260902111018 | 63 | 237 | 1.7 | 7.0 | 0.00 | 0.02 | 0.02 | 90 | 1018.2 |
| 20260902110519 | 63 | 215 | 2.6 | 7.0 | 0.00 | 0.02 | 0.02 | 90 | 1018.2 |
| 20260902110038 | 63 | 121 | 2.6 | 7.8 | 0.00 | 0.02 | 0.02 | 92 | 1018.4 |
| 20260902105518 | 62 | 123 | 2.6 | 7.8 | 0.00 | 0.02 | 0.02 | 91 | 1018.5 |
| 20260902105018 | 62 | 107 | 1.7 | 7.0 | 0.00 | 0.02 | 0.02 | 91 | 1018.6 |
| 20260902104538 | 62 | 147 | 1.7 | 9.6 | 0.00 | 0.02 | 0.02 | 89 | 1018.6 |
| 20260902104016 | 62 | 236 | 2.6 | 10.4 | 0.00 | 0.02 | 0.02 | 89 | 1018.7 |
| 20260902103517 | 62 | 229 | 3.5 | 10.4 | 0.00 | 0.02 | 0.02 | 88 | 1018.6 |
| 20260902103034 | 62 | 232 | 3.5 | 9.6 | 0.00 | 0.02 | 0.02 | 87 | 1018.7 |
| 20260902102521 | 62 | 211 | 4.3 | 8.7 | 0.00 | 0.02 | 0.02 | 87 | 1018.8 |
| 20260902102018 | 62 | 198 | 4.3 | 8.7 | 0.00 | 0.02 | 0.02 | 88 | 1018.8 |
| 20260902101532 | 62 | 360 | 2.6 | 7.8 | 0.00 | 0.02 | 0.02 | 88 | 1018.8 |
| 20260902101018 | 62 | 128 | 2.6 | 7.8 | 0.00 | 0.02 | 0.02 | 89 | 1018.9 |
| 20260902100518 | 62 | 184 | 2.6 | 7.0 | 0.00 | 0.02 | 0.02 | 89 | 1018.9 |
| 20260902100035 | 61 | 206 | 2.6 | 7.0 | 0.00 | 0.02 | 0.02 | 89 | 1018.9 |
| 20260902095518 | 61 | 165 | 2.6 | 10.4 | 0.00 | 0.02 | 0.02 | 89 | 1019.1 |
| 20260902095021 | 61 | 189 | 4.3 | 10.4 | 0.00 | 0.02 | 0.02 | 89 | 1019.1 |
| 20260902094535 | 61 | 360 | 4.3 | 9.6 | 0.00 | 0.02 | 0.02 | 89 | 1019.2 |
| 20260902094018 | 61 | 240 | 4.3 | 10.4 | 0.00 | 0.02 | 0.02 | 88 | 1019.2 |
| 20260902093520 | 61 | 360 | 6.1 | 10.4 | 0.00 | 0.02 | 0.02 | 89 | 1019.3 |
| 20260902093033 | 62 | 181 | 5.2 | 10.4 | 0.00 | 0.02 | 0.02 | 89 | 1019.1 |
| 20260902092519 | 62 | 223 | 4.3 | 10.4 | 0.00 | 0.02 | 0.02 | 90 | 1019.0 |
| 20260902092018 | 61 | 182 | 3.5 | 9.6 | 0.00 | 0.02 | 0.02 | 92 | 1019.1 |
| 20260902091545 | 61 | 191 | 4.3 | 9.6 | 0.00 | 0.02 | 0.02 | 91 | 1019.2 |
| 20260902091017 | 61 | 172 | 4.3 | 8.7 | 0.00 | 0.02 | 0.02 | 92 | 1019.1 |
| 20260902090519 | 61 | 225 | 5.2 | 8.7 | 0.00 | 0.02 | 0.02 | 94 | 1019.0 |
| 20260902090037 | 61 | 215 | 3.5 | 10.4 | 0.00 | 0.02 | 0.02 | 95 | 1019.0 |
| 20260902085517 | 61 | 187 | 3.5 | 11.3 | 0.00 | 0.02 | 0.02 | 95 | 1019.2 |
| 20260902085017 | 61 | 360 | 4.3 | 11.3 | 0.00 | 0.02 | 0.02 | 95 | 1019.1 |
| 20260902084531 | 60 | 206 | 4.3 | 9.6 | 0.00 | 0.02 | 0.02 | 95 | 1019.1 |
| 20260902084019 | 60 | 186 | 2.6 | 8.7 | 0.00 | 0.02 | 0.02 | 96 | 1019.2 |
| 20260902083518 | 60 | 191 | 3.5 | 8.7 | 0.00 | 0.02 | 0.02 | 96 | 1019.1 |
| 20260902083033 | 60 | 202 | 3.5 | 8.7 | 0.00 | 0.02 | 0.02 | 96 | 1019.1 |
| 20260902082516 | 60 | 205 | 3.5 | 7.8 | 0.00 | 0.02 | 0.02 | 96 | 1019.1 |
| 20260902082016 | 60 | 169 | 1.7 | 5.2 | 0.00 | 0.02 | 0.02 | 96 | 1019.1 |
| 20260902081539 | 59 | 254 | 1.7 | 5.2 | 0.00 | 0.02 | 0.02 | 96 | 1019.2 |
| 20260902081018 | 59 | 194 | 0.9 | 5.2 | 0.00 | 0.01 | 0.01 | 96 | 1019.2 |
| 20260902080518 | 59 | 221 | 1.7 | 5.2 | 0.00 | 0.01 | 0.01 | 96 | 1019.3 |
| 20260902080034 | 59 | 223 | 1.7 | 5.2 | 0.00 | 0.01 | 0.01 | 96 | 1019.3 |
| 20260902075518 | 59 | 194 | 0.9 | 4.3 | 0.00 | 0.01 | 0.01 | 96 | 1019.2 |
| 20260902075017 | 59 | 197 | 1.7 | 4.3 | 0.00 | 0.01 | 0.01 | 96 | 1019.2 |
| 20260902074543 | 59 | 194 | 0.9 | 5.2 | 0.00 | 0.01 | 0.01 | 96 | 1019.0 |
| 20260902074015 | 59 | 217 | 1.7 | 5.2 | 0.00 | 0.01 | 0.01 | 97 | 1019.2 |
| 20260902073518 | 59 | 191 | 1.7 | 5.2 | 0.00 | 0.01 | 0.01 | 97 | 1019.2 |
| 20260902073037 | 59 | 205 | 1.7 | 5.2 | 0.00 | 0.01 | 0.01 | 96 | 1019.1 |
| 20260902072518 | 59 | 232 | 1.7 | 6.1 | 0.00 | 0.01 | 0.01 | 96 | 1019.1 |
| 20260902072018 | 59 | 186 | 1.7 | 6.1 | 0.00 | 0.01 | 0.01 | 96 | 1019.3 |
| 20260902071533 | 59 | 232 | 1.7 | 5.2 | 0.00 | 0.01 | 0.01 | 96 | 1019.1 |
| 20260902071018 | 59 | 220 | 1.7 | 5.2 | 0.00 | 0.00 | 0.00 | 96 | 1019.1 |
| 20260902070517 | 59 | 222 | 1.7 | 5.2 | 0.00 | 0.00 | 0.00 | 96 | 1019.0 |
| 20260902070035 | 59 | 197 | 1.7 | 5.2 | 0.00 | 0.00 | 0.00 | 96 | 1018.9 |
| 20260902065517 | 59 | 219 | 1.7 | 5.2 | 0.00 | 0.00 | 0.00 | 96 | 1018.9 |
| 20260902065018 | 59 | 236 | 2.6 | 5.2 | 0.00 | 0.00 | 0.00 | 96 | 1018.9 |
| 20260902064535 | 59 | 198 | 1.7 | 4.3 | 0.00 | 0.00 | 0.00 | 96 | 1018.8 |
| 20260902064017 | 58 | 198 | 1.7 | 4.3 | 0.00 | 0.00 | 0.00 | 96 | 1018.9 |
| 20260902063517 | 58 | 203 | 1.7 | 4.3 | 0.00 | 0.00 | 0.00 | 96 | 1018.8 |
| 20260902063035 | 58 | 200 | 1.7 | 4.3 | 0.00 | 0.00 | 0.00 | 96 | 1018.8 |
| 20260902062519 | 58 | 201 | 1.7 | 4.3 | 0.00 | 0.00 | 0.00 | 96 | 1018.9 |
| 20260902062019 | 58 | 192 | 1.7 | 4.3 | 0.00 | 0.00 | 0.00 | 96 | 1018.8 |
| 20260902061541 | 58 | 213 | 1.7 | 4.3 | 0.00 | 0.00 | 0.00 | 96 | 1018.8 |
| 20260902061018 | 58 | 186 | 1.7 | 4.3 | 0.00 | 0.00 | 0.00 | 96 | 1018.8 |
| 20260902060518 | 58 | 223 | 1.7 | 4.3 | 0.00 | 0.00 | 0.00 | 96 | 1018.8 |
| 20260902060047 | 58 | 173 | 1.7 | 6.1 | 0.00 | 0.00 | 0.00 | 95 | 1018.8 |
| 20260902055522 | 58 | 206 | 1.7 | 6.1 | 0.00 | 0.00 | 0.00 | 95 | 1018.9 |
| 20260902055019 | 58 | 226 | 1.7 | 5.2 | 0.00 | 0.00 | 0.00 | 95 | 1018.9 |
| 20260902054540 | 58 | 188 | 1.7 | 4.3 | 0.00 | 0.00 | 0.00 | 95 | 1018.8 |
| 20260902054021 | 58 | 198 | 2.6 | 6.1 | 0.00 | 0.00 | 0.00 | 95 | 1018.7 |
| 20260902053519 | 58 | 195 | 2.6 | 6.1 | 0.00 | 0.00 | 0.00 | 95 | 1018.7 |
| 20260902053036 | 58 | 192 | 2.6 | 4.3 | 0.00 | 0.00 | 0.00 | 95 | 1018.8 |
| 20260902052517 | 58 | 195 | 2.6 | 4.3 | 0.00 | 0.00 | 0.00 | 94 | 1018.7 |
| 20260902052021 | 58 | 227 | 1.7 | 4.3 | 0.00 | 0.00 | 0.00 | 94 | 1018.9 |
| 20260902051536 | 58 | 211 | 1.7 | 4.3 | 0.00 | 0.00 | 0.00 | 94 | 1019.0 |
| 20260902051018 | 58 | 199 | 2.6 | 4.3 | 0.00 | 0.00 | 0.00 | 94 | 1018.9 |
| 20260902050518 | 58 | 191 | 1.7 | 4.3 | 0.00 | 0.00 | 0.00 | 94 | 1018.9 |
| 20260902050031 | 58 | 179 | 0.9 | 4.3 | 0.00 | 0.00 | 0.00 | 94 | 1018.9 |
| 20260902045518 | 58 | 189 | 0.9 | 4.3 | 0.00 | 0.00 | 0.00 | 94 | 1019.0 |
| 20260902045018 | 58 | 189 | 1.7 | 5.2 | 0.00 | 0.00 | 0.00 | 94 | 1019.1 |
| 20260902044535 | 58 | 249 | 1.7 | 5.2 | 0.00 | 0.00 | 0.00 | 94 | 1019.0 |
| 20260902044018 | 58 | 246 | 1.7 | 4.3 | 0.00 | 0.00 | 0.00 | 94 | 1019.1 |
| 20260902043518 | 58 | 199 | 1.7 | 4.3 | 0.00 | 0.00 | 0.00 | 94 | 1018.9 |
| 20260902043035 | 58 | 182 | 1.7 | 4.3 | 0.00 | 0.00 | 0.00 | 94 | 1019.0 |
| 20260902042518 | 58 | 190 | 1.7 | 4.3 | 0.00 | 0.00 | 0.00 | 94 | 1019.0 |
| 20260902042018 | 58 | 223 | 0.9 | 4.3 | 0.00 | 0.00 | 0.00 | 94 | 1019.0 |
| 20260902041536 | 58 | 189 | 0.9 | 4.3 | 0.00 | 0.00 | 0.00 | 94 | 1019.1 |
| 20260902041019 | 58 | 221 | 1.7 | 4.3 | 0.00 | 0.00 | 0.00 | 94 | 1019.1 |
| 20260902040518 | 58 | 203 | 0.9 | 2.6 | 0.00 | 0.00 | 0.00 | 94 | 1019.0 |
| 20260902040033 | 58 | 0 | 0.0 | 1.7 | 0.00 | 0.00 | 0.00 | 94 | 1019.1 |
| 20260902035519 | 58 | 0 | 0.0 | 1.7 | 0.00 | 0.00 | 0.00 | 94 | 1019.2 |
| 20260902035018 | 58 | 0 | 0.0 | 2.6 | 0.00 | 0.00 | 0.00 | 94 | 1019.1 |
| 20260902034535 | 58 | 0 | 0.0 | 2.6 | 0.00 | 0.00 | 0.00 | 94 | 1019.2 |
| 20260902034017 | 58 | 200 | 0.9 | 2.6 | 0.00 | 0.00 | 0.00 | 94 | 1019.2 |
| 20260902033518 | 58 | 198 | 0.9 | 3.5 | 0.00 | 0.00 | 0.00 | 93 | 1019.2 |
| 20260902033032 | 58 | 201 | 1.7 | 3.5 | 0.00 | 0.00 | 0.00 | 93 | 1019.2 |
| 20260902032519 | 58 | 202 | 0.0 | 3.5 | 0.00 | 0.00 | 0.00 | 93 | 1019.3 |
| 20260902032019 | 58 | 202 | 0.9 | 3.5 | 0.00 | 0.00 | 0.00 | 93 | 1019.2 |
| 20260902031534 | 58 | 205 | 0.9 | 2.6 | 0.00 | 0.00 | 0.00 | 93 | 1019.3 |
| 20260902031017 | 58 | 205 | 0.9 | 2.6 | 0.00 | 0.00 | 0.00 | 93 | 1019.3 |
| 20260902030519 | 58 | 0 | 0.0 | 0.0 | 0.00 | 0.00 | 0.00 | 92 | 1019.4 |
| 20260902030031 | 58 | 0 | 0.0 | 0.0 | 0.00 | 0.00 | 0.00 | 92 | 1019.4 |
| 20260902025519 | 58 | 0 | 0.0 | 0.0 | 0.00 | 0.00 | 0.00 | 91 | 1019.4 |
| 20260902025018 | 58 | 0 | 0.0 | 0.0 | 0.00 | 0.00 | 0.00 | 91 | 1019.4 |
| 20260902024537 | 58 | 0 | 0.0 | 0.0 | 0.00 | 0.00 | 0.00 | 91 | 1019.6 |
| 20260902024021 | 58 | 0 | 0.0 | 0.0 | 0.00 | 0.00 | 0.00 | 91 | 1019.4 |
| 20260902023518 | 59 | 0 | 0.0 | 3.5 | 0.00 | 0.00 | 0.00 | 91 | 1019.6 |
| 20260902023037 | 59 | 0 | 0.0 | 3.5 | 0.00 | 0.00 | 0.00 | 91 | 1019.5 |
| 20260902022518 | 59 | 197 | 1.7 | 3.5 | 0.00 | 0.00 | 0.00 | 90 | 1019.7 |
| 20260902022018 | 59 | 229 | 0.9 | 3.5 | 0.00 | 0.00 | 0.00 | 90 | 1019.6 |
| 20260902021536 | 59 | 213 | 1.7 | 5.2 | 0.00 | 0.00 | 0.00 | 90 | 1019.7 |
| 20260902021017 | 59 | 234 | 1.7 | 5.2 | 0.00 | 0.00 | 0.00 | 90 | 1019.8 |
| 20260902020516 | 59 | 229 | 0.9 | 3.5 | 0.00 | 0.00 | 0.00 | 90 | 1019.8 |
| 20260902020032 | 59 | 227 | 0.9 | 3.5 | 0.00 | 0.00 | 0.00 | 90 | 1019.8 |
| 20260902015518 | 59 | 212 | 0.9 | 3.5 | 0.00 | 0.00 | 0.00 | 90 | 1019.8 |
| 20260902015018 | 59 | 235 | 0.9 | 2.6 | 0.00 | 0.00 | 0.00 | 90 | 1019.8 |
| 20260902014537 | 59 | 239 | 0.0 | 2.6 | 0.00 | 0.00 | 0.00 | 90 | 1019.9 |
| 20260902014017 | 59 | 0 | 0.0 | 1.7 | 0.00 | 0.00 | 0.00 | 90 | 1019.8 |
| 20260902013518 | 59 | 0 | 0.0 | 2.6 | 0.00 | 0.00 | 0.00 | 90 | 1019.7 |
| 20260902013038 | 59 | 240 | 0.9 | 2.6 | 0.00 | 0.00 | 0.00 | 90 | 1019.7 |
| 20260902012518 | 59 | 0 | 0.0 | 3.5 | 0.00 | 0.00 | 0.00 | 90 | 1019.8 |
| 20260902012017 | 59 | 242 | 0.9 | 5.2 | 0.00 | 0.00 | 0.00 | 90 | 1019.7 |
| 20260902011538 | 59 | 244 | 1.7 | 6.1 | 0.00 | 0.00 | 0.00 | 90 | 1019.8 |
| 20260902011017 | 58 | 192 | 2.6 | 6.1 | 0.00 | 0.00 | 0.00 | 90 | 1019.8 |
| 20260902010518 | 58 | 207 | 2.6 | 5.2 | 0.00 | 0.00 | 0.00 | 90 | 1019.8 |
| 20260902010035 | 58 | 202 | 1.7 | 4.3 | 0.00 | 0.00 | 0.00 | 90 | 1019.8 |
| 20260902005518 | 58 | 194 | 2.6 | 4.3 | 0.00 | 0.00 | 0.00 | 90 | 1019.9 |
| 20260902005020 | 58 | 186 | 1.7 | 4.3 | 0.00 | 0.00 | 0.00 | 90 | 1020.0 |
| 20260902004532 | 58 | 196 | 0.9 | 3.5 | 0.00 | 0.00 | 0.00 | 90 | 1020.1 |
| 20260902004015 | 58 | 234 | 0.9 | 3.5 | 0.00 | 0.00 | 0.00 | 90 | 1020.0 |
| 20260902003517 | 58 | 234 | 1.7 | 3.5 | 0.00 | 0.00 | 0.00 | 90 | 1020.1 |
| 20260902003035 | 58 | 232 | 1.7 | 3.5 | 0.00 | 0.00 | 0.00 | 89 | 1020.1 |
| 20260902002518 | 58 | 223 | 1.7 | 5.2 | 0.00 | 0.00 | 0.00 | 90 | 1020.2 |
| 20260902002017 | 58 | 211 | 1.7 | 5.2 | 0.00 | 0.00 | 0.00 | 90 | 1020.2 |
| 20260902001545 | 58 | 220 | 1.7 | 4.3 | 0.00 | 0.00 | 0.00 | 90 | 1020.1 |
| 20260902001017 | 57 | 245 | 1.7 | 4.3 | 0.00 | 0.00 | 0.00 | 90 | 1020.1 |
| 20260902000517 | 57 | 223 | 1.7 | 4.3 | 0.00 | 0.00 | 0.00 | 90 | 1020.2 |
| 20260902000041 | 57 | 225 | 1.7 | 4.3 | 0.00 | 0.00 | 0.00 | 90 | 1020.2 |
| 20260901235516 | 57 | 238 | 1.7 | 3.5 | 0.00 | 0.00 | 0.00 | 90 | 1020.2 |
| 20260901235018 | 57 | 232 | 1.7 | 3.5 | 0.00 | 0.00 | 0.00 | 91 | 1020.3 |
| 20260901234533 | 57 | 219 | 1.7 | 3.5 | 0.00 | 0.00 | 0.00 | 91 | 1020.2 |
| 20260901234018 | 56 | 231 | 0.9 | 2.6 | 0.00 | 0.00 | 0.00 | 91 | 1020.1 |
| 20260901233516 | 56 | 230 | 0.9 | 2.6 | 0.00 | 0.00 | 0.00 | 91 | 1020.2 |
| 20260901233045 | 56 | 227 | 0.9 | 2.6 | 0.00 | 0.00 | 0.00 | 91 | 1020.2 |
| 20260901232518 | 56 | 0 | 0.0 | 0.0 | 0.00 | 0.00 | 0.00 | 91 | 1020.1 |
| 20260901232019 | 56 | 0 | 0.0 | 1.7 | 0.00 | 0.00 | 0.00 | 91 | 1020.3 |
| 20260901231533 | 56 | 0 | 0.0 | 1.7 | 0.00 | 0.00 | 0.00 | 91 | 1020.3 |
| 20260901231017 | 56 | 0 | 0.0 | 0.0 | 0.00 | 0.00 | 0.00 | 91 | 1020.3 |
| 20260901230518 | 56 | 0 | 0.0 | 0.9 | 0.00 | 0.00 | 0.00 | 91 | 1020.3 |
| 20260901230036 | 55 | 0 | 0.0 | 0.9 | 0.00 | 0.00 | 0.00 | 90 | 1020.4 |
| 20260901225517 | 56 | 0 | 0.0 | 0.0 | 0.00 | 0.00 | 0.00 | 89 | 1020.4 |
| 20260901225020 | 56 | 0 | 0.0 | 0.0 | 0.00 | 0.00 | 0.00 | 89 | 1020.4 |
| 20260901224534 | 56 | 0 | 0.0 | 0.0 | 0.00 | 0.00 | 0.00 | 89 | 1020.3 |
| 20260901224018 | 56 | 0 | 0.0 | 0.0 | 0.00 | 0.00 | 0.00 | 88 | 1020.4 |
| 20260901223518 | 56 | 0 | 0.0 | 0.0 | 0.00 | 0.00 | 0.00 | 88 | 1020.4 |
| 20260901223034 | 56 | 0 | 0.0 | 0.0 | 0.00 | 0.00 | 0.00 | 87 | 1020.4 |
| 20260901222518 | 57 | 0 | 0.0 | 0.0 | 0.00 | 0.00 | 0.00 | 87 | 1020.4 |
| 20260901222017 | 57 | 0 | 0.0 | 0.0 | 0.00 | 0.00 | 0.00 | 87 | 1020.4 |
| 20260901221534 | 57 | 0 | 0.0 | 0.0 | 0.00 | 0.00 | 0.00 | 88 | 1020.4 |
| 20260901221018 | 57 | 0 | 0.0 | 0.9 | 0.00 | 0.00 | 0.00 | 87 | 1020.4 |
| 20260901220517 | 57 | 0 | 0.0 | 1.7 | 0.00 | 0.00 | 0.00 | 87 | 1020.5 |
| 20260901220045 | 57 | 0 | 0.0 | 1.7 | 0.00 | 0.00 | 0.00 | 87 | 1020.4 |
| 20260901215518 | 57 | 225 | 0.0 | 1.7 | 0.00 | 0.00 | 0.00 | 87 | 1020.4 |
| 20260901215021 | 57 | 0 | 0.0 | 1.7 | 0.00 | 0.00 | 0.00 | 86 | 1020.5 |
| 20260901214534 | 57 | 225 | 0.9 | 1.7 | 0.00 | 0.00 | 0.00 | 86 | 1020.5 |
| 20260901214017 | 58 | 0 | 0.0 | 0.0 | 0.00 | 0.00 | 0.00 | 85 | 1020.4 |
| 20260901213516 | 58 | 0 | 0.0 | 0.0 | 0.00 | 0.00 | 0.00 | 85 | 1020.4 |
| 20260901213035 | 58 | 0 | 0.0 | 0.0 | 0.00 | 0.00 | 0.00 | 85 | 1020.4 |
| 20260901212518 | 59 | 0 | 0.0 | 0.0 | 0.00 | 0.00 | 0.00 | 85 | 1020.5 |
| 20260901212019 | 59 | 0 | 0.0 | 0.0 | 0.00 | 0.00 | 0.00 | 85 | 1020.5 |
| 20260901211538 | 59 | 0 | 0.0 | 0.0 | 0.00 | 0.00 | 0.00 | 85 | 1020.5 |
| 20260901211019 | 59 | 0 | 0.0 | 0.0 | 0.00 | 0.00 | 0.00 | 85 | 1020.5 |
| 20260901210519 | 59 | 0 | 0.0 | 0.0 | 0.00 | 0.00 | 0.00 | 84 | 1020.5 |
| 20260901210038 | 60 | 0 | 0.0 | 0.0 | 0.00 | 0.00 | 0.00 | 84 | 1020.6 |
| 20260901205521 | 60 | 0 | 0.0 | 0.0 | 0.00 | 0.00 | 0.00 | 84 | 1020.6 |
| 20260901205018 | 60 | 0 | 0.0 | 0.0 | 0.00 | 0.00 | 0.00 | 83 | 1020.6 |
| 20260901204532 | 60 | 0 | 0.0 | 0.0 | 0.00 | 0.00 | 0.00 | 83 | 1020.6 |
| 20260901204018 | 60 | 0 | 0.0 | 0.0 | 0.00 | 0.00 | 0.00 | 83 | 1020.5 |
| 20260901203517 | 60 | 0 | 0.0 | 0.9 | 0.00 | 0.00 | 0.00 | 82 | 1020.6 |
| 20260901203038 | 60 | 0 | 0.0 | 1.7 | 0.00 | 0.00 | 0.00 | 82 | 1020.6 |
| 20260901202518 | 60 | 0 | 0.0 | 1.7 | 0.00 | 0.00 | 0.00 | 82 | 1020.5 |
| 20260901202018 | 60 | 225 | 0.0 | 1.7 | 0.00 | 0.00 | 0.00 | 81 | 1020.5 |
| 20260901201539 | 61 | 0 | 0.0 | 1.7 | 0.00 | 0.00 | 0.00 | 81 | 1020.5 |
| 20260901201018 | 61 | 0 | 0.0 | 0.0 | 0.00 | 0.00 | 0.00 | 81 | 1020.5 |
| 20260901200523 | 61 | 0 | 0.0 | 0.0 | 0.00 | 0.00 | 0.00 | 81 | 1020.4 |
| 20260901200031 | 61 | 0 | 0.0 | 0.0 | 0.00 | 0.00 | 0.00 | 81 | 1020.5 |
| 20260901195518 | 61 | 0 | 0.0 | 0.0 | 0.00 | 0.00 | 0.00 | 81 | 1020.5 |
| 20260901195021 | 61 | 0 | 0.0 | 0.0 | 0.00 | 0.00 | 0.00 | 81 | 1020.5 |
| 20260901194538 | 62 | 0 | 0.0 | 0.0 | 0.00 | 0.00 | 0.00 | 80 | 1020.4 |
| 20260901194018 | 62 | 0 | 0.0 | 1.7 | 0.00 | 0.00 | 0.00 | 80 | 1020.4 |
| 20260901193518 | 62 | 0 | 0.0 | 2.6 | 0.00 | 0.00 | 0.00 | 80 | 1020.4 |
| 20260901193034 | 62 | 0 | 0.0 | 3.5 | 0.00 | 0.00 | 0.00 | 81 | 1020.3 |
| 20260901192517 | 62 | 225 | 0.9 | 3.5 | 0.00 | 0.00 | 0.00 | 81 | 1020.4 |
| 20260901192017 | 62 | 223 | 0.9 | 3.5 | 0.00 | 0.00 | 0.00 | 81 | 1020.5 |
| 20260901191534 | 62 | 219 | 1.7 | 3.5 | 0.00 | 0.00 | 0.00 | 80 | 1020.6 |
| 20260901191022 | 62 | 229 | 1.7 | 2.6 | 0.00 | 0.00 | 0.00 | 80 | 1020.5 |
| 20260901190519 | 62 | 0 | 0.0 | 2.6 | 0.00 | 0.00 | 0.00 | 80 | 1020.4 |
| 20260901190033 | 62 | 228 | 0.9 | 2.6 | 0.00 | 0.00 | 0.00 | 79 | 1020.3 |
| 20260901185520 | 62 | 0 | 0.0 | 0.0 | 0.00 | 0.00 | 0.00 | 79 | 1020.3 |
| 20260901185021 | 62 | 0 | 0.0 | 3.5 | 0.00 | 0.00 | 0.00 | 79 | 1020.3 |
| 20260901184533 | 62 | 0 | 0.0 | 3.5 | 0.00 | 0.00 | 0.00 | 79 | 1020.4 |
| 20260901184018 | 62 | 227 | 0.9 | 3.5 | 0.00 | 0.00 | 0.00 | 79 | 1020.4 |
| 20260901183517 | 62 | 229 | 0.9 | 3.5 | 0.00 | 0.00 | 0.00 | 78 | 1020.4 |
| 20260901183035 | 62 | 229 | 0.0 | 3.5 | 0.00 | 0.00 | 0.00 | 78 | 1020.3 |
| 20260901182518 | 63 | 226 | 1.7 | 6.1 | 0.00 | 0.00 | 0.00 | 78 | 1020.3 |
| 20260901182018 | 63 | 233 | 1.7 | 6.1 | 0.00 | 0.00 | 0.00 | 78 | 1020.3 |
| 20260901181539 | 63 | 223 | 1.7 | 4.3 | 0.00 | 0.00 | 0.00 | 77 | 1020.3 |
| 20260901181018 | 63 | 224 | 0.0 | 4.3 | 0.00 | 0.00 | 0.00 | 77 | 1020.3 |
| 20260901180519 | 63 | 236 | 0.0 | 6.1 | 0.00 | 0.00 | 0.00 | 77 | 1020.3 |
| 20260901180030 | 63 | 237 | 2.6 | 6.1 | 0.00 | 0.00 | 0.00 | 77 | 1020.5 |
| 20260901175518 | 63 | 229 | 0.9 | 2.6 | 0.00 | 0.00 | 0.00 | 77 | 1020.5 |
| 20260901175017 | 63 | 232 | 0.9 | 5.2 | 0.00 | 0.00 | 0.00 | 77 | 1020.5 |
| 20260901174533 | 63 | 228 | 1.7 | 7.8 | 0.00 | 0.00 | 0.00 | 77 | 1020.5 |
| 20260901174020 | 63 | 240 | 3.5 | 7.8 | 0.00 | 0.00 | 0.00 | 77 | 1020.4 |
| 20260901173518 | 63 | 207 | 2.6 | 7.8 | 0.00 | 0.00 | 0.00 | 76 | 1020.3 |
| 20260901173036 | 63 | 210 | 3.5 | 11.3 | 0.00 | 0.00 | 0.00 | 76 | 1020.3 |
| 20260901172518 | 63 | 239 | 3.5 | 11.3 | 0.00 | 0.00 | 0.00 | 76 | 1020.5 |
| 20260901172019 | 64 | 240 | 2.6 | 7.0 | 0.00 | 0.00 | 0.00 | 76 | 1020.6 |
| 20260901171539 | 64 | 0 | 0.9 | 5.2 | 0.00 | 0.00 | 0.00 | 75 | 1020.6 |
| 20260901171017 | 65 | 225 | 0.9 | 9.6 | 0.00 | 0.00 | 0.00 | 75 | 1020.7 |
| 20260901170519 | 65 | 257 | 1.7 | 13.0 | 0.00 | 0.00 | 0.00 | 74 | 1020.6 |
| 20260901170058 | 66 | 257 | 3.5 | 13.0 | 0.00 | 0.00 | 0.00 | 74 | 1020.3 |
| 20260901165518 | 66 | 259 | 3.5 | 8.7 | 0.00 | 0.00 | 0.00 | 73 | 1020.2 |
| 20260901165017 | 66 | 233 | 2.6 | 8.7 | 0.00 | 0.00 | 0.00 | 72 | 1020.1 |
| 20260901164541 | 66 | 360 | 4.3 | 8.7 | 0.00 | 0.00 | 0.00 | 72 | 1020.1 |
| 20260901164018 | 66 | 239 | 1.7 | 7.0 | 0.00 | 0.00 | 0.00 | 73 | 1020.0 |
| 20260901163517 | 65 | 198 | 1.7 | 11.3 | 0.00 | 0.00 | 0.00 | 73 | 1020.1 |
| 20260901163041 | 65 | 269 | 1.7 | 11.3 | 0.00 | 0.00 | 0.00 | 72 | 1020.3 |
| 20260901162520 | 65 | 240 | 3.5 | 9.6 | 0.00 | 0.00 | 0.00 | 72 | 1020.2 |